EW5854 Weather Reports


time (UTC)temp
C
wind
direction
speed
KPH
gust
KPH
rain 1hr
cm
rain 24hr
cm
rain mn
cm
humidity
%
barometer
mb
20260506044546 12 115 0.0 0.0 0.00 0.03 0.00 90 1008.5
20260506043033 12 115 0.0 0.0 0.00 0.03 0.00 91 1008.4
20260506041531 12 115 0.0 0.0 0.00 0.03 0.00 90 1008.3
20260506040034 13 115 0.0 0.0 0.00 0.03 0.00 89 1008.1
20260506034526 12 115 0.0 0.0 0.00 0.03 0.00 91 1008.0
20260506033023 13 115 0.0 0.0 0.00 0.03 0.00 91 1008.1
20260506031521 13 115 0.0 0.0 0.00 0.03 0.03 92 1008.2
20260506030021 13 115 0.0 0.0 0.00 0.03 0.03 93 1008.3
20260506024520 13 115 0.0 0.0 0.00 0.03 0.03 93 1008.4
20260506023011 13 115 0.0 0.0 0.00 0.03 0.03 93 1008.4
20260506021510 14 115 0.0 0.0 0.00 0.03 0.03 92 1008.5
20260506020009 14 115 0.0 4.8 0.00 0.03 0.03 89 1008.3
20260506014509 13 115 0.0 6.4 0.00 0.03 0.03 92 1008.7
20260506013008 13 115 0.0 0.0 0.00 0.03 0.03 98 1008.0
20260506011508 13 115 0.0 0.0 0.00 0.03 0.03 98 1007.6
20260506010010 14 115 0.0 0.0 0.00 0.03 0.03 98 1007.4
20260506004506 14 115 0.0 0.0 0.00 0.03 0.03 98 1007.3
20260506003056 14 115 0.0 0.0 0.00 0.03 0.03 98 1007.3
20260506001557 15 115 0.0 0.0 0.00 0.03 0.03 97 1006.9
20260506000055 15 115 0.0 0.0 0.00 0.03 0.03 94 1007.2
20260505234554 15 115 0.0 0.0 0.00 0.03 0.03 92 1007.8
20260505233053 15 115 0.0 1.6 0.00 0.03 0.03 91 1007.6
20260505231607 15 115 0.0 0.0 0.00 0.03 0.03 90 1007.2
20260505230052 16 115 0.0 0.0 0.00 0.03 0.03 84 1007.2
20260505224555 18 115 0.0 6.4 0.00 0.03 0.03 70 1006.7
20260505223034 18 115 3.2 17.7 0.00 0.03 0.03 65 1004.8
20260505221535 19 115 3.2 12.9 0.00 0.03 0.03 64 1004.1
20260505220019 20 115 1.6 9.7 0.00 0.03 0.03 63 1003.8
20260505214516 20 115 3.2 16.1 0.00 0.03 0.03 63 1003.6
20260505213114 20 115 1.6 14.5 0.00 0.03 0.03 62 1003.7
20260505211555 20 115 0.0 12.9 0.00 0.03 0.03 63 1003.7
20260505210055 21 115 3.2 22.5 0.00 0.03 0.03 61 1003.6
20260505204540 21 116 4.8 20.9 0.00 0.03 0.03 60 1003.5
20260505203054 21 116 3.2 14.5 0.00 0.03 0.03 59 1003.5
20260505201544 21 116 4.8 20.9 0.00 0.03 0.03 59 1003.6
20260505200046 21 116 3.2 29.0 0.00 0.03 0.03 60 1003.7
20260505194538 21 117 1.6 29.0 0.00 0.03 0.03 60 1003.9
20260505193036 21 117 1.6 27.4 0.00 0.03 0.03 59 1003.9
20260505191534 21 117 3.2 20.9 0.00 0.03 0.03 59 1004.2
20260505190035 21 117 1.6 20.9 0.00 0.03 0.03 58 1004.3
20260505184519 21 117 1.6 17.7 0.03 0.03 0.03 59 1004.4
20260505183022 21 117 3.2 14.5 0.03 0.03 0.03 59 1004.5
20260505181519 21 117 3.2 19.3 0.03 0.03 0.03 60 1004.7
20260505180019 21 117 3.2 16.1 0.03 0.03 0.03 59 1004.9
20260505174515 21 77 4.8 24.1 0.00 0.00 0.00 59 1005.1
20260505173012 21 61 4.8 17.7 0.00 0.00 0.00 59 1005.5
20260505171510 20 22 4.8 14.5 0.00 0.00 0.00 59 1005.7
20260505170015 21 344 0.0 0.0 0.00 0.00 0.00 60 1005.9
20260505164557 22 339 0.0 0.0 0.00 0.00 0.00 56 1006.1
20260505163056 23 340 0.0 0.0 0.00 0.00 0.00 53 1006.3
20260505161613 24 340 0.0 0.0 0.00 0.00 0.00 53 1006.6
20260505153059 23 343 0.0 0.0 0.00 0.00 0.00 53 1007.4
20260505151558 23 342 0.0 0.0 0.00 0.00 0.00 56 1007.5
20260505124556 17 338 0.0 0.0 0.00 0.00 0.00 64 1008.2
20260505123055 18 341 0.0 0.0 0.00 0.00 0.00 63 1008.2
20260505121537 17 342 0.0 0.0 0.00 0.00 0.00 70 1008.3
20260505120039 17 342 0.0 0.0 0.00 0.00 0.00 67 1008.5
20260505114538 16 345 0.0 0.0 0.00 0.00 0.00 71 1008.5
20260505113029 15 343 0.0 0.0 0.00 0.00 0.00 76 1008.5
20260505111526 13 342 0.0 0.0 0.00 0.00 0.00 79 1008.5
20260505101600 10 343 0.0 0.0 0.00 0.00 0.00 96 1008.3
20260505100059 7 344 0.0 0.0 0.00 0.00 0.00 99 1008.3
20260505094556 7 343 0.0 0.0 0.00 0.00 0.00 99 1008.3
20260505093055 6 343 0.0 0.0 0.00 0.00 0.00 100 1008.2
20260505091554 6 343 0.0 0.0 0.00 0.00 0.00 100 1008.2
20260505084554 6 343 0.0 0.0 0.00 0.00 0.00 100 1008.4
20260505083058 6 343 0.0 0.0 0.00 0.00 0.00 100 1008.4
20260505081543 6 343 0.0 0.0 0.00 0.00 0.00 100 1008.5
20260505080036 6 343 0.0 0.0 0.00 0.00 0.00 100 1008.6
20260505074522 6 343 0.0 0.0 0.00 0.00 0.00 100 1008.5
20260505073020 6 343 0.0 0.0 0.00 0.00 0.00 100 1008.5
20260505071520 5 343 0.0 0.0 0.00 0.00 0.00 100 1008.5
20260505070019 5 343 0.0 0.0 0.00 0.00 0.00 100 1008.4
20260505064520 5 343 0.0 0.0 0.00 0.00 0.00 99 1008.3
20260505063018 5 343 0.0 0.0 0.00 0.00 0.00 99 1008.4
20260505061517 5 343 0.0 0.0 0.00 0.00 0.00 99 1008.5
20260505060026 5 343 0.0 0.0 0.00 0.00 0.00 99 1008.4
20260505054505 5 343 0.0 0.0 0.00 0.00 0.00 98 1008.4
20260505053003 6 343 0.0 0.0 0.00 0.00 0.00 98 1008.4
20260505051501 6 343 0.0 0.0 0.00 0.00 0.00 98 1008.4